DELTA 1 DEB, 7839

Orbit data source: Space-Track

DELTA 1 DEB, 7839 is space debris in SSO originally from a launch on Sun, 23 Jul 1972 UTC launched from the Air Force Western Test Range (AFWTR). Debris objects in space refer to the collection of defunct objects orbiting the Earth. Examples of debris include non-operational satellites, rocket bodies, and fragments generated from explosions, collisions, or faulty payload assembly.

Loading next visibility...
Identifier
7839, 1972-058K
Orbit
SSO
Country
Flag of USUS
Related business
Manufacturer
Unknown
Mission
Spacecraft
Bus & Motor
Unknown
Mass
Unknown
Launch date (UTC)
1972-07-23 (53 years ago)
Launch vehicle
Unknown
Launch site
Air Force Western Test Range (AFWTR)
Object type
Payload
Rocket body
Debris
Shape & HBR
Unknown shape, 0.2 m
Radar Cross Section
Medium (>0.1 m² and <1 m²)

Expand to show TLE details & history
Last TLE update: 12 hours ago

TLE from 12 hours ago
0 DELTA 1 DEB
1 07839U 72058K   25349.91368006  .00002427  00000-0  44511-3 0  9998
2 07839  98.7325 195.2477 0158607 250.5163 107.8842 14.58991438618307
Epoch: 2025-12-15T21:55Z
TLE epoch observation values (Epoch: 2025-12-15T21:55:41.957Z)
Latitude
-0.00002°
Longitude
141.51746°
Altitude
735.465 km
Speed
7.468 km/s
True Right ascension
13h 00m 59s
True Declination
0° 00' 00"
Sunlit
Object was in daylight at epoch
Visualization orbit readout
Latitude
Unknown
Longitude
Unknown
Altitude
Unknown
Speed
Unknown
Apparent Right ascension
Unknown
Apparent Declination
Unknown
Sunlit
N/A
Visualization observer readout
Local Sidereal Time
08:23:16
Azimuth
Unknown
Elevation
Unknown
Doppler factor
Unknown
Orbital elements
Apogee altitude
805.701 km
Perigee altitude
581.377 km
Semi-major axis
7,071.676 km
Eccentricity
0.01586
Inclination
98.7325°
RAAN
195.2477°
Arg. of periapsis
250.5163°
True anomaly
109.60315°
Mean anomaly
107.8842°
Eccentric anomaly
108.74475°
Mean motion
3.64972 °/min
Orbital period
98.64 mins
BSTAR
0.00044511
Loading maneuver chart data...
Computing Atmospheric mass density...
Loading historical data...
Loading historical data...
Loading historical data...
Loading historical data...
Loading historical data...
Loading historical data...
Loading historical data...

Documentation

Showing up to 5 results
|